Location: ?????
(31.7405°N, 35.1927°E)
Time: 21:11:00
(UTC+00:00)

COSMO-SKYMED 1 - Pass Details

Date: 17 February 2020
Orbit: 621 x 623 km, 97.9° (Epoch: 29 March)

Event Time Altitude Azimuth Distance (km) Brightness Sun altitude
Rises 03:54:23 0° 201° (SSW) 2,888 5.9 -6.1°
Reaches altitude 10° 03:57:07 10° 219° (SW) 1,986 4.9 -5.6°
Maximum altitude 04:00:11 19° 265° (W) 1,487 3.9 -4.9°
Drops below altitude 10° 04:03:17 10° 310° (NW) 1,996 4.6 -4.3°
Sets 04:06:03 0° 329° (NNW) 2,907 5.6 -3.7°
